Date,TemperatureHighF,TemperatureAvgF,TemperatureLowF,DewpointHighF,DewpointAvgF,DewpointLowF,HumidityHigh,HumidityAvg,HumidityLow,PressureMaxIn,PressureMinIn,WindSpeedMaxMPH,WindSpeedAvgMPH,GustSpeedMaxMPH,PrecipitationSumIn
2013-1-1,53,52,49,49,45,40,87,77,64,30.17,29.93,2,0,2,0.12
2013-1-2,57,52,48,52,47,42,89,85,80,30.17,29.88,8,1,8,0.20
2013-1-3,48,46,42,43,42,38,90,86,80,30.27,30.09,5,1,5,0.04
2013-1-4,59,43,32,43,34,29,89,73,50,30.35,30.23,5,0,5,0.00
2013-1-5,55,42,30,35,30,24,81,62,36,30.41,30.25,4,0,4,0.00
2013-1-6,52,47,43,45,40,34,83,76,65,30.25,30.07,2,0,2,0.00
2013-1-7,59,45,34,39,34,29,86,67,43,30.40,30.19,8,1,8,0.00
2013-1-8,58,49,39,45,39,31,76,69,60,30.42,30.32,5,1,5,0.00
2013-1-9,76,58,47,59,49,41,83,72,51,30.43,30.34,6,1,6,0.00
2013-1-10,76,62,54,58,52,48,83,70,48,30.47,30.35,7,1,7,0.00
2013-1-11,72,62,54,62,56,51,89,83,71,30.35,30.15,4,1,4,0.00
2013-1-12,79,67,58,66,59,54,90,76,58,30.19,30.10,3,0,3,0.00
2013-1-13,80,66,58,65,58,54,88,77,58,30.17,30.07,4,0,4,0.00
2013-1-14,83,69,61,66,59,54,83,71,55,30.16,30.07,4,1,4,0.00
2013-1-15,79,68,62,64,59,54,83,72,56,30.16,30.01,4,0,4,0.00
2013-1-16,70,63,60,64,58,54,87,83,75,30.01,29.96,3,1,3,0.01
2013-1-17,78,60,42,65,54,38,90,81,60,30.14,29.68,11,2,11,0.99
2013-1-18,65,43,36,38,32,24,87,67,33,30.51,30.14,10,2,10,0.00
2013-1-19,69,43,32,42,30,23,77,62,37,30.50,30.20,4,0,4,0.00
2013-1-20,80,51,37,48,37,33,84,63,30,30.20,30.02,4,0,4,0.03
2013-1-21,72,52,38,46,34,26,74,54,32,30.08,29.94,7,1,7,0.00
2013-1-22,65,45,35,33,23,20,60,43,28,30.24,30.02,10,1,10,0.00
2013-1-23,63,41,30,29,21,13,60,46,26,30.36,30.11,5,1,5,0.00
2013-1-24,70,46,33,43,30,9,72,56,27,30.46,30.02,14,2,14,0.00
2013-1-25,34,31,26,22,13,8,62,49,37,30.49,30.14,6,1,6,0.00
2013-1-26,64,45,34,42,31,22,69,58,42,30.33,30.09,6,1,6,0.00
2013-1-27,58,40,31,36,28,24,78,62,40,30.53,30.32,6,1,6,0.01
2013-1-28,55,44,36,45,35,26,80,69,63,30.46,30.27,4,1,4,0.00
2013-1-29,82,51,40,63,44,35,85,79,52,30.27,30.07,4,0,4,0.00
2013-1-30,71,66,54,62,59,48,84,80,68,30.07,29.51,14,3,14,0.51
2013-1-31,55,48,43,48,33,25,82,57,34,30.12,29.65,12,2,12,0.00
2013-2-1,64,45,33,32,22,11,58,42,21,30.34,30.03,15,2,15,0.00
2013-2-2,66,42,25,31,18,10,56,40,23,30.37,30.06,9,1,9,0.00
2013-2-3,64,49,40,39,31,25,68,51,32,30.07,29.88,9,2,9,0.00
2013-2-4,53,42,31,32,27,22,74,56,40,30.14,30.01,5,0,5,0.00
2013-2-5,73,51,35,46,37,27,74,61,39,30.04,29.91,6,1,6,0.00
2013-2-6,84,56,41,52,39,32,84,58,26,30.19,30.00,9,1,9,0.00
2013-2-7,51,47,43,44,39,32,88,75,50,30.20,29.84,17,4,17,1.06
2013-2-8,74,52,44,55,43,33,88,72,48,30.09,29.82,16,2,16,0.01
2013-2-9,78,50,31,40,30,23,82,51,24,30.29,30.08,12,1,12,0.00
2013-2-10,74,48,38,48,31,23,85,54,30,30.42,30.16,5,1,5,0.21
2013-2-11,69,62,52,62,57,46,89,84,77,30.22,30.01,5,2,6,0.52
2013-2-12,71,57,49,55,48,44,88,74,44,30.11,29.89,6,0,6,0.25
2013-2-13,55,50,47,52,46,42,90,85,78,29.91,29.65,12,1,12,0.08
2013-2-14,54,45,38,42,38,34,85,77,60,30.07,29.87,2,0,2,0.00
2013-2-15,80,47,34,52,37,30,88,71,32,30.09,29.93,6,0,6,0.00
2013-2-16,45,40,32,37,34,27,84,78,71,30.02,29.83,11,2,11,0.31
2013-2-17,58,37,27,29,22,17,80,57,31,30.27,30.02,9,1,9,0.00
2013-2-18,72,43,26,39,26,18,78,54,28,30.39,30.23,4,1,4,0.00
2013-2-19,52,45,36,47,37,25,86,76,58,30.23,29.94,5,1,5,0.25
2013-2-20,72,47,31,39,31,25,84,58,27,30.13,30.03,5,0,5,0.01
2013-2-21,75,50,36,39,27,19,71,44,24,30.21,30.07,6,1,6,0.00
2013-2-22,50,42,38,36,33,26,89,74,44,30.23,30.08,8,2,8,0.25
2013-2-23,46,42,38,42,39,35,90,88,87,30.08,29.81,7,1,7,1.19
2013-2-24,78,54,45,56,44,38,90,73,44,29.99,29.84,5,1,5,0.01
2013-2-25,48,44,42,40,32,28,81,62,54,30.12,29.97,10,3,10,0.00
2013-2-26,56,45,38,52,41,30,93,87,62,29.99,29.55,12,2,12,0.91
2013-2-27,72,51,40,48,40,36,88,68,41,29.85,29.71,6,1,6,0.00
2013-2-28,61,48,39,39,34,27,80,59,40,29.90,29.76,9,2,9,0.00
2013-3-1,67,45,31,40,31,24,77,58,36,29.95,29.84,8,1,8,0.00
2013-3-2,52,43,35,38,32,27,73,64,51,29.92,29.84,9,1,9,0.00
2013-3-3,53,41,34,32,26,21,69,55,39,30.00,29.89,10,2,10,0.00
2013-3-4,70,43,24,34,24,17,75,50,21,30.16,30.00,8,1,8,0.00
2013-3-5,70,52,39,51,39,26,79,61,46,30.09,29.65,8,1,8,0.03
2013-3-6,63,47,39,42,28,23,68,49,29,30.11,29.67,13,3,13,0.00
2013-3-7,71,47,30,40,29,21,73,52,30,30.22,30.11,10,2,10,0.00
2013-3-8,72,48,35,35,27,23,62,46,24,30.30,30.17,14,3,14,0.00
2013-3-9,76,61,38,41,34,24,60,38,25,30.33,30.21,8,2,8,0.00
2013-3-10,79,56,40,46,36,30,71,49,28,30.27,30.16,5,1,6,0.00
2013-3-11,75,59,44,54,42,24,74,55,39,30.20,29.88,6,2,6,0.02
2013-3-12,85,64,54,64,53,42,88,70,33,29.96,29.78,8,1,8,0.36
2013-3-13,73,52,37,42,32,22,78,51,24,30.15,29.96,9,2,9,0.00
2013-3-14,63,49,39,26,24,21,56,39,25,30.18,30.14,6,1,6,0.00
2013-3-15,76,53,33,40,32,23,72,49,25,30.21,29.96,7,1,7,0.00
2013-3-16,88,68,56,54,42,38,57,41,25,29.96,29.80,12,2,12,0.00
2013-3-17,85,68,56,57,47,40,64,47,35,30.01,29.90,7,1,7,0.00
2013-3-18,63,55,47,52,45,42,88,69,58,30.09,29.82,17,3,17,0.71
2013-3-19,80,59,47,57,43,27,87,62,31,30.03,29.84,9,2,9,0.00
2013-3-20,62,52,41,30,25,16,59,37,23,30.12,29.80,11,1,11,0.00
2013-3-21,64,49,36,29,23,17,62,39,24,29.96,29.79,9,2,9,0.00
2013-3-22,59,44,31,28,20,14,53,40,28,30.09,29.95,6,1,6,0.00
2013-3-23,52,45,40,45,37,26,86,73,46,30.04,29.88,6,1,6,0.59
2013-3-24,47,46,43,44,42,39,91,87,84,29.90,29.53,14,3,14,1.44
2013-3-25,54,45,39,40,32,22,88,61,40,29.94,29.58,14,3,14,0.00
2013-3-26,55,43,32,35,26,22,67,53,43,30.17,29.93,11,2,11,0.00
2013-3-27,63,45,28,36,27,21,76,52,31,30.26,30.16,13,1,13,0.00
2013-3-28,65,48,30,35,27,21,72,47,28,30.31,30.17,11,2,11,0.00
2013-3-29,70,53,36,37,29,23,60,42,25,30.35,30.20,6,1,6,0.00
2013-3-30,74,61,50,49,42,35,66,51,38,30.22,30.05,6,1,6,0.00
2013-3-31,76,62,54,57,51,43,83,69,46,30.06,29.85,8,1,8,0.12
2013-4-1,78,66,59,65,54,43,88,67,43,29.95,29.85,5,1,5,0.65
2013-4-2,73,60,47,48,42,36,78,53,35,30.16,29.95,7,1,7,0.00
2013-4-3,61,57,54,35,33,31,47,41,33,30.24,30.17,2,0,2,0.00
2013-4-4,54,47,42,41,38,34,88,72,46,30.22,29.92,12,3,12,0.65
2013-4-5,60,49,40,48,42,36,86,77,64,30.03,29.90,8,2,8,0.00
2013-4-6,75,57,39,50,40,35,87,59,28,30.22,30.02,9,1,9,0.00
2013-4-7,78,62,45,57,48,39,85,61,42,30.25,30.09,5,1,5,0.00
2013-4-8,85,69,55,61,54,50,83,61,38,30.19,30.07,5,1,6,0.00
2013-4-9,87,72,58,66,57,53,83,62,41,30.22,30.10,4,1,4,0.00
2013-4-10,89,78,64,66,60,54,78,55,43,30.14,29.98,5,1,5,0.00
2013-4-11,86,72,62,69,62,56,85,73,53,30.02,29.78,6,1,6,0.22
2013-4-12,83,73,64,69,61,43,88,68,39,29.84,29.68,10,2,10,0.19
2013-4-13,80,66,50,49,45,40,72,48,31,30.01,29.83,7,1,7,0.00
2013-4-14,75,64,53,56,50,44,79,62,44,30.08,29.88,6,1,6,0.04
2013-4-15,74,66,61,63,58,54,82,77,67,30.17,29.92,6,1,6,0.00
2013-4-16,81,70,58,66,60,55,89,71,48,30.27,30.17,8,1,8,0.00
2013-4-17,88,72,59,66,60,54,85,68,46,30.24,30.10,8,1,8,0.00
2013-4-18,81,71,63,63,59,57,82,68,54,30.15,30.01,4,1,4,0.00
2013-4-19,85,70,57,71,63,52,86,79,56,30.01,29.78,6,1,6,0.29
2013-4-20,68,58,51,52,45,39,85,63,39,30.25,29.93,13,2,13,0.02
2013-4-21,69,58,45,46,42,38,81,57,38,30.38,30.25,10,2,10,0.00
2013-4-22,68,58,47,42,36,28,65,46,28,30.36,30.18,16,3,16,0.00
2013-4-23,72,60,52,54,47,38,74,62,50,30.25,30.11,11,2,11,0.00
2013-4-24,80,67,54,60,54,48,83,66,46,30.17,30.03,5,1,5,0.00
2013-4-25,76,68,62,56,51,46,73,56,46,30.25,30.07,7,1,7,0.00
2013-4-26,76,63,50,54,48,39,83,59,43,30.41,30.24,14,2,14,0.00
2013-5-1,64,63,61,56,56,56,82,78,75,30.22,30.20,8,3,8,0.00
2013-5-2,69,63,61,60,58,56,90,83,72,30.24,30.16,9,2,9,0.16
2013-5-3,65,60,56,59,56,51,88,85,72,30.17,30.06,8,2,8,0.03
2013-5-4,63,57,52,56,50,45,89,78,64,30.07,29.91,8,2,8,0.04
2013-5-5,64,59,54,61,56,51,92,88,82,29.94,29.79,8,2,8,0.74
2013-5-6,72,65,58,60,55,48,92,72,51,29.92,29.81,6,1,6,0.00
2013-5-7,71,60,51,57,51,46,84,73,58,29.96,29.88,6,0,6,0.00
2013-5-8,80,66,52,61,54,47,86,68,46,30.01,29.92,5,1,5,0.01
2013-5-9,85,71,57,62,57,51,83,62,41,30.09,29.99,7,1,7,0.00
2013-5-10,87,74,60,65,60,54,80,62,45,30.08,29.97,4,0,4,0.00
2013-5-11,84,74,66,66,62,57,79,65,50,30.00,29.84,7,1,7,0.00
2013-5-12,88,72,59,62,53,40,85,54,26,30.02,29.83,9,1,9,0.00
2013-5-13,97,67,52,54,42,34,64,43,18,30.16,30.02,10,2,10,0.00
2013-5-14,89,65,46,45,39,33,62,41,16,30.27,30.12,8,1,8,0.00
2013-5-15,105,75,53,63,53,40,70,50,24,30.12,29.96,5,1,5,0.00
2013-5-16,90,74,61,64,58,54,78,60,38,30.05,29.96,5,0,5,0.00
2013-5-17,103,77,60,65,60,55,86,60,29,30.10,30.02,5,0,5,0.00
2013-5-18,87,74,64,68,63,56,89,69,53,30.14,30.06,6,1,6,0.22
2013-6-7,78,76,74,72,71,70,85,84,83,29.83,29.76,2,0,2,0.00
2013-6-8,87,77,70,73,69,66,89,77,61,30.07,29.81,5,0,5,0.00
2013-6-9,85,75,72,76,69,66,88,83,71,30.13,30.04,7,0,7,0.91
2013-6-10,80,74,71,75,71,68,91,89,83,30.08,29.94,4,1,4,1.14
2013-6-11,89,79,70,77,71,68,91,80,63,29.99,29.91,5,1,5,0.00
2013-6-12,95,82,72,76,72,67,88,73,53,29.99,29.90,3,0,4,0.00
2013-6-13,96,85,75,76,72,69,85,67,47,29.90,29.65,10,1,10,0.23
2013-6-16,84,80,75,69,67,65,72,64,59,30.07,30.02,2,0,2,0.00
2013-6-17,90,77,69,74,68,62,85,73,56,30.06,29.92,4,0,4,0.13
2013-6-18,85,76,71,76,70,66,87,82,70,29.98,29.81,5,1,5,0.16
2013-6-19,82,75,72,70,68,64,87,78,59,30.08,29.88,6,1,6,0.00
2013-6-20,85,77,69,67,64,61,87,66,46,30.18,30.07,9,1,9,0.00
2013-6-21,78,71,66,62,60,58,75,67,52,30.21,30.15,4,1,4,0.00
2013-6-22,87,78,69,71,66,58,76,65,56,30.18,30.09,10,2,10,0.00
2013-6-23,89,79,72,74,70,65,83,74,59,30.19,30.11,6,0,6,0.00
2013-6-24,88,77,72,75,70,66,87,81,67,30.22,30.12,8,0,8,0.32
2013-6-25,88,76,70,76,70,66,89,81,63,30.14,30.02,13,0,13,0.71
2013-6-26,87,77,71,78,71,67,89,83,74,30.05,29.93,4,0,4,0.01
2013-6-27,92,81,72,77,73,68,89,78,58,29.96,29.75,6,1,6,0.10
2013-6-28,93,83,74,77,73,69,86,72,55,29.78,29.63,7,1,7,0.00
2013-6-29,82,77,75,71,68,66,79,72,66,29.69,29.65,6,1,6,0.00
2013-6-30,88,77,72,75,70,67,87,81,66,29.84,29.73,3,0,3,0.33
2013-7-1,83,75,70,74,70,66,89,84,74,29.99,29.81,3,0,3,0.56
2013-7-2,77,74,72,73,70,68,91,89,85,30.13,29.98,4,1,4,1.20
2013-7-3,80,75,73,75,72,70,92,90,85,30.20,30.11,3,0,3,0.81
2013-7-4,79,73,72,75,70,69,92,91,89,30.21,30.17,4,0,4,0.37
2013-7-5,74,74,74,71,71,71,89,89,89,30.17,30.17,1,1,1,0.00
2013-7-6,85,73,72,76,70,69,92,91,75,30.22,30.15,2,0,2,0.27
2013-7-7,82,79,77,76,72,71,85,78,76,30.17,30.09,1,0,1,0.04
2013-7-8,87,79,74,77,73,69,88,81,71,30.19,30.11,3,0,3,0.00
2013-7-9,90,80,74,78,74,70,89,81,69,30.17,30.07,4,0,4,0.01
2013-7-10,83,76,74,75,72,70,89,85,76,30.12,30.06,3,0,3,0.00
2013-7-12,73,72,71,68,67,67,87,86,84,29.99,29.92,6,1,6,0.00
2013-7-13,82,74,71,74,70,68,89,86,78,30.07,29.97,8,2,8,0.00
2013-7-14,85,78,74,77,72,70,89,82,70,30.24,30.07,6,1,6,0.19
2013-7-15,85,78,74,77,72,69,89,84,74,30.28,30.21,7,1,7,0.41
2013-7-16,90,81,72,78,73,69,91,78,62,30.29,30.20,9,1,9,0.00
2013-7-17,94,80,73,79,72,67,88,77,57,30.22,30.10,8,1,8,0.01
2013-7-18,90,80,71,78,72,66,87,77,63,30.18,30.05,5,0,5,0.01
2013-7-19,90,81,74,75,72,69,86,74,57,30.12,29.99,4,1,4,0.00
2013-7-20,88,80,75,75,72,70,85,76,65,30.07,29.94,4,1,4,0.00
2013-7-21,87,79,74,77,72,69,86,80,70,30.02,29.91,5,0,5,0.25
2013-7-22,87,79,73,77,72,70,89,81,69,29.99,29.87,7,1,7,0.01
2013-7-23,90,82,75,76,72,70,85,73,60,29.90,29.78,5,1,5,0.00
2013-7-24,89,79,75,77,72,68,85,79,63,29.84,29.74,5,0,5,0.17
2013-7-25,88,80,73,75,71,68,86,75,62,30.01,29.79,10,2,10,0.01
2013-7-26,88,80,72,73,70,66,84,72,58,30.08,29.99,4,1,4,0.00
2013-7-27,84,78,71,77,71,65,85,81,73,30.04,29.90,8,1,8,0.16
2013-7-28,90,80,71,76,72,66,89,77,58,30.01,29.92,5,1,5,0.03
2013-7-29,90,79,74,76,72,69,87,79,63,30.14,29.99,5,0,5,0.02
2013-7-30,88,79,72,75,71,68,89,79,64,30.19,30.10,5,0,5,0.00
2013-7-31,85,78,74,77,72,69,87,83,76,30.13,29.99,4,0,4,0.25
2013-8-1,88,78,73,77,72,69,89,83,69,30.00,29.88,4,0,4,0.02
2013-8-2,89,80,74,78,74,71,89,81,69,30.01,29.91,3,0,3,0.00
2013-8-3,91,84,74,78,73,69,88,71,57,30.02,29.94,4,1,4,0.00
2013-8-4,92,81,73,75,71,68,85,73,57,30.00,29.92,10,1,10,0.00
2013-8-5,89,80,73,70,68,63,82,67,52,30.06,29.97,4,1,4,0.00
2013-8-6,77,74,72,70,67,63,89,80,65,30.05,29.97,8,0,8,1.95
2013-8-7,85,78,72,75,71,69,89,80,63,30.08,30.00,3,0,3,0.00
2013-8-8,90,84,76,76,73,70,85,71,60,30.06,29.99,3,0,3,0.00
2013-8-9,91,82,76,78,74,71,87,77,65,30.10,30.01,3,1,3,0.00
2013-8-10,94,84,75,78,74,70,86,73,58,30.12,30.03,4,0,4,0.00
2013-8-11,95,84,75,77,74,70,85,71,53,30.12,30.03,5,0,5,0.00
2013-8-12,95,84,76,78,73,70,84,71,54,30.07,29.94,6,0,6,0.12
2013-8-13,94,83,75,78,74,71,88,75,55,29.97,29.81,6,1,6,0.01
2013-8-14,81,78,74,72,69,67,83,76,64,29.99,29.84,11,2,11,0.01
2013-8-15,74,72,68,65,62,60,79,72,66,30.11,30.02,6,1,6,0.04
2013-8-16,70,66,65,63,61,60,89,84,74,30.12,30.04,8,2,8,2.70
2013-8-17,66,66,65,63,62,62,89,89,88,30.11,30.06,6,2,6,0.10
2013-8-19,77,75,73,72,71,69,87,86,85,30.11,30.07,2,0,2,0.00
2013-8-20,83,76,72,77,72,69,90,86,80,30.17,30.08,9,1,9,0.03
2013-8-21,89,79,72,80,73,69,92,82,71,30.22,30.09,9,0,9,0.01
2013-8-22,91,79,72,78,72,68,89,80,63,30.15,30.00,4,0,4,0.01
2013-8-23,90,78,72,76,70,67,88,77,62,30.05,29.94,6,0,6,0.00
2013-8-24,82,76,71,71,67,62,81,75,65,30.25,30.01,9,2,9,0.00
2013-8-25,83,74,66,65,61,57,82,66,51,30.35,30.24,11,1,11,0.00
2013-8-26,84,73,63,64,59,55,79,63,45,30.29,30.12,9,1,9,0.00
2013-8-27,88,74,62,72,64,54,81,70,56,30.14,29.99,5,0,5,0.00
2013-8-28,92,80,70,74,69,64,84,72,55,30.02,29.93,5,0,5,0.00
2013-8-29,94,82,72,77,71,66,84,71,54,29.95,29.86,8,1,8,0.00
2013-8-30,88,80,74,73,69,66,82,71,56,30.04,29.93,5,1,5,0.00
2013-8-31,91,80,71,76,71,66,87,75,59,29.98,29.87,3,0,3,0.00
2013-9-1,91,80,74,79,73,69,87,79,64,29.93,29.80,8,0,8,0.72
2013-9-2,91,81,73,78,73,69,89,76,60,29.92,29.81,4,1,4,0.01
2013-9-3,92,81,72,77,71,67,87,73,54,29.94,29.83,8,1,8,0.00
2013-9-4,93,81,73,75,70,66,85,71,54,30.06,29.93,7,1,7,0.00
2013-9-5,92,81,73,74,70,67,83,69,51,30.09,30.01,5,1,5,0.00
2013-9-6,89,78,71,70,66,62,79,66,51,30.13,30.03,10,2,10,0.00
2013-9-7,89,77,68,70,64,59,78,66,49,30.11,29.97,8,1,8,0.00
2013-9-8,90,77,67,72,66,61,83,70,50,29.99,29.90,6,0,6,0.00
2013-9-9,92,80,72,71,67,65,80,66,44,30.12,29.97,6,1,6,0.00
2013-9-10,91,80,72,73,68,65,85,69,49,30.23,30.12,6,1,6,0.00
2013-9-11,90,79,70,72,67,64,83,68,49,30.21,30.07,6,0,6,0.00
2013-9-12,93,75,70,73,66,64,83,74,49,30.09,29.85,5,0,5,0.00
2013-9-13,92,80,72,71,66,58,84,64,46,29.86,29.76,9,1,9,0.00
2013-9-14,82,74,66,62,57,51,67,55,47,30.08,29.86,14,2,14,0.00
2013-9-15,87,75,65,70,63,56,77,67,55,30.17,30.07,4,1,4,0.00
2013-9-16,89,80,72,75,70,66,84,72,56,30.12,30.01,9,1,9,0.00
2013-9-17,80,73,68,69,61,55,81,67,52,30.25,30.09,5,1,8,0.63
2013-9-18,81,70,60,60,56,52,75,63,48,30.25,30.13,9,1,9,0.00
2013-9-19,86,72,61,65,59,52,73,63,49,30.17,30.07,6,0,6,0.00
2013-9-20,89,76,65,70,64,58,81,69,51,30.08,29.92,4,0,4,0.00
2013-9-21,83,75,70,70,67,63,86,76,64,29.94,29.67,3,1,3,0.09
2013-9-22,83,74,67,68,62,57,85,69,51,29.88,29.68,12,2,12,0.09
2013-9-23,83,70,61,62,57,54,77,64,48,30.04,29.88,7,1,7,0.00
2013-9-24,80,69,59,61,58,53,79,67,52,30.06,29.91,8,0,8,0.00
2013-9-25,76,69,64,61,59,58,83,71,57,29.92,29.83,8,1,8,0.99
2013-9-26,80,70,64,66,60,56,86,72,53,29.99,29.85,10,2,10,0.16
2013-9-27,80,69,60,61,56,53,80,65,48,30.13,29.99,12,2,12,0.00
2013-9-28,78,67,58,59,54,51,78,64,49,30.20,30.10,11,2,11,0.00
2013-9-29,78,67,59,60,54,50,79,65,49,30.13,30.01,9,2,9,0.00
2013-9-30,78,67,59,60,55,51,76,66,52,30.08,29.98,5,0,5,0.00
2013-10-1,84,69,57,64,57,51,82,67,45,30.13,30.03,6,0,6,0.00
2013-10-2,87,72,60,68,60,53,81,67,47,30.14,30.05,6,0,6,0.00
2013-10-3,85,73,64,68,61,57,80,67,51,30.13,30.05,4,0,4,0.00
2013-10-4,88,74,65,72,64,60,85,71,50,30.14,30.05,7,0,7,0.00
2013-10-5,92,76,64,72,64,59,83,67,46,30.12,30.01,6,0,6,0.00
2013-10-6,88,76,66,74,66,60,85,71,53,30.05,29.89,3,0,3,0.00
2013-10-7,78,75,71,72,70,64,86,83,78,29.93,29.80,10,1,10,0.00
2013-10-8,71,63,57,64,54,52,83,74,65,30.13,29.91,13,4,13,0.00
2013-10-9,77,66,57,61,54,49,79,68,55,30.14,30.05,11,4,11,0.00
2013-10-10,80,68,57,64,56,48,74,65,50,30.07,29.95,9,2,9,0.00
2013-10-11,89,74,66,69,61,59,79,66,49,29.99,29.89,6,0,6,0.00
2013-10-12,89,72,64,72,62,57,82,70,54,30.05,29.94,7,1,7,0.00
2013-10-13,74,69,67,64,62,59,81,76,71,30.15,30.05,8,2,8,0.00
2013-10-14,70,67,65,62,61,59,84,81,77,30.18,30.10,12,3,12,0.00
2013-10-15,82,68,60,63,56,51,83,66,45,30.14,30.01,13,2,13,0.00
2013-10-16,83,69,60,69,58,52,81,70,57,30.05,29.94,6,0,6,0.00
2013-10-17,90,73,64,74,63,59,85,72,51,29.97,29.86,5,0,5,0.00
2013-10-18,72,70,64,66,63,58,82,79,75,29.98,29.88,6,1,6,0.04
2013-10-19,78,68,63,65,58,53,85,71,55,29.95,29.85,6,0,6,0.00
2013-10-20,81,65,56,59,51,47,79,64,43,30.07,29.91,8,1,8,0.00
2013-10-21,76,61,50,60,50,44,78,69,54,30.12,29.98,3,0,3,0.00
2013-10-22,67,63,60,60,56,52,83,78,72,30.01,29.81,3,0,3,0.00
2013-10-23,84,65,53,62,49,33,86,61,33,30.03,29.73,10,1,10,0.00
2013-10-24,77,54,39,47,37,30,71,53,33,30.17,30.02,5,0,5,0.00
2013-10-25,73,53,45,46,37,30,72,55,34,30.33,30.11,11,2,11,0.00
2013-10-26,74,50,36,42,33,26,67,54,31,30.33,30.10,4,0,4,0.00
2013-10-27,80,56,42,52,42,34,77,61,35,30.12,30.03,5,0,5,0.23
2013-10-28,67,62,58,55,53,51,80,73,63,30.23,30.17,0,0,0,0.00
2013-10-29,82,63,52,62,53,47,86,71,47,30.30,30.21,4,0,4,0.00
2013-10-30,89,65,53,64,54,48,84,69,42,30.29,30.14,5,0,5,0.00
2013-10-31,82,68,57,63,58,52,85,72,52,30.18,29.93,4,1,4,0.00
2013-11-1,78,68,63,68,63,59,89,82,70,29.94,29.72,4,1,4,1.24
2013-11-2,78,64,54,61,54,42,89,71,48,29.96,29.72,6,1,6,0.01
2013-11-3,78,56,48,50,41,36,71,57,34,30.28,29.96,12,2,12,0.00
2013-11-4,71,52,42,41,36,33,76,56,29,30.45,30.27,8,2,8,0.00
2013-11-5,70,47,40,53,37,31,76,68,53,30.45,30.37,9,3,9,0.00
2013-11-10,68,54,50,50,42,40,69,63,51,30.17,30.14,4,0,4,0.02
2013-11-11,75,54,43,45,36,30,68,51,30,30.29,30.13,6,1,6,0.00
2013-11-12,82,51,36,51,36,28,77,61,29,30.38,29.99,23,3,23,0.11
2013-11-13,61,40,31,33,24,21,76,56,31,30.50,30.38,9,3,11,0.00
2013-11-14,72,43,27,39,26,20,77,55,26,30.47,30.30,4,0,4,0.01
2013-11-15,62,51,40,50,40,26,79,64,57,30.30,30.14,3,0,3,0.00
2013-11-16,84,63,53,65,54,48,85,73,49,30.22,30.12,5,1,5,0.00
2013-11-17,72,62,54,63,57,50,90,85,73,30.17,29.93,3,0,3,0.02
2013-11-18,91,71,58,74,59,36,91,69,44,29.93,29.80,8,1,8,0.04
2013-11-19,72,53,46,39,34,30,63,50,30,30.12,29.93,11,3,11,0.00
2013-11-23,66,57,50,56,46,37,75,67,61,30.18,30.09,8,2,8,0.00
2013-11-24,57,41,30,38,22,12,63,48,29,30.53,30.18,14,3,14,0.00
2013-11-25,57,37,26,26,16,10,53,42,24,30.57,30.30,6,1,6,0.00
2013-11-26,67,48,41,63,37,15,89,67,35,30.30,29.59,6,2,6,0.55
2013-11-27,63,43,31,59,38,24,87,82,72,30.24,29.55,10,1,10,0.27
2013-11-28,59,36,25,40,26,21,84,68,41,30.50,30.23,6,0,6,0.01
2013-11-29,71,37,29,51,28,24,81,70,43,30.56,30.47,4,0,4,0.00
2013-11-30,54,43,32,38,31,24,70,62,51,30.58,30.38,10,2,10,0.00
2013-12-1,58,54,52,45,44,43,75,68,61,30.09,30.03,0,0,0,0.00
2013-12-2,64,52,47,48,43,41,80,71,56,30.01,29.82,0,0,0,0.00
2013-12-3,59,54,50,53,48,43,88,80,75,29.97,29.86,2,0,2,0.16
2013-12-4,66,60,57,62,56,53,91,89,85,30.09,29.95,3,0,3,0.33
2013-12-5,68,63,58,64,60,54,92,90,86,30.14,30.05,3,0,3,0.03
2013-12-6,80,69,62,70,64,60,92,85,71,30.12,30.02,4,1,4,0.00
2013-12-7,68,59,46,64,55,43,90,87,83,30.38,30.04,10,2,10,0.13
2013-12-8,46,42,39,43,39,36,91,89,88,30.38,30.25,6,2,8,0.26
2013-12-9,53,46,39,50,43,36,92,91,89,30.25,30.02,4,0,4,0.11
2013-12-10,64,54,43,60,49,34,93,83,63,30.32,29.91,10,2,10,0.27
2013-12-11,56,43,34,39,33,28,80,69,50,30.44,30.28,4,0,4,0.00
2013-12-12,56,42,36,37,31,27,79,65,45,30.40,30.25,7,1,8,0.00
2013-12-13,59,43,32,38,30,24,78,62,43,30.37,30.23,3,0,3,0.00
2013-12-14,59,50,44,55,43,30,89,76,57,30.24,29.80,5,1,5,1.22
2013-12-15,55,49,39,48,43,32,89,80,65,30.12,29.74,6,1,6,0.04
2013-12-16,62,44,32,46,35,27,84,71,52,30.20,30.10,4,0,4,0.01
2013-12-17,68,50,38,47,36,31,78,62,43,30.16,30.01,5,1,5,0.00
2013-12-18,60,48,38,36,31,27,66,53,33,30.30,30.04,6,1,6,0.00
2013-12-19,64,46,35,40,32,27,74,60,39,30.35,30.22,2,0,2,0.00
2013-12-20,70,54,46,56,46,37,81,72,57,30.25,30.14,5,0,5,0.01
2013-12-21,75,63,51,64,56,45,88,79,67,30.16,30.01,5,1,5,0.00
2013-12-22,76,71,67,68,65,62,88,81,70,30.10,30.01,8,2,8,0.27
2013-12-23,68,64,56,65,61,51,91,89,82,30.13,30.02,11,1,11,0.72
2013-12-24,61,50,39,51,38,24,82,64,50,30.39,30.10,8,3,9,0.00
2013-12-25,43,34,30,25,20,17,60,56,47,30.52,30.38,7,2,7,0.00
2013-12-27,62,49,38,44,31,27,63,51,41,30.43,30.36,6,1,6,0.00
2013-12-28,57,45,33,38,31,24,74,59,45,30.41,30.08,6,1,6,0.08
2013-12-29,63,52,44,59,46,37,89,82,74,30.08,29.78,10,1,10,1.88
2013-12-30,54,48,40,46,42,36,88,81,72,30.15,29.96,2,0,2,0.00
2013-12-31,61,49,40,45,39,32,84,70,50,30.37,30.12,7,1,7,0.03
2014-1-1,48,43,37,38,35,30,78,73,66,30.39,30.14,3,0,3,0.03
2014-1-2,51,47,42,48,42,35,89,84,75,30.14,29.68,9,1,9,0.32